WESTFORD NEEDLES, 2378

Orbit data source: Space-Track

WESTFORD NEEDLES, 2378 is space debris in LEO originally from a launch on Thu, 09 May 1963 UTC launched from the Air Force Western Test Range (AFWTR). Debris objects in space refer to the collection of defunct objects orbiting the Earth. Examples of debris include non-operational satellites, rocket bodies, and fragments generated from explosions, collisions, or faulty payload assembly.

Loading next visibility...
Identifier
2378, 1963-014Y
Orbit
LEO
Country
Flag of USUS
Related business
Manufacturer
Unknown
Mission
Spacecraft
Bus & Motor
Unknown
Mass
Unknown
Launch date (UTC)
1963-05-09 (63 years ago)
Launch vehicle
Unknown
Launch site
Air Force Western Test Range (AFWTR)
Object type
Payload
Rocket body
Debris
Shape & HBR
Unknown shape, 1.1 m
Radar Cross Section
Medium (>0.1 m² and <1 m²)

Expand to show TLE details & history
Last TLE update: 3 months ago

TLE from 3 months ago
0 WESTFORD NEEDLES
1 02378U 63014Y   25312.10529948  .00000048  00000-0  20613-1 0  9990
2 02378  87.3723 179.1871 0155863  34.3170 326.7642  8.66630888976333
Epoch: 2025-11-08T02:31Z
TLE epoch observation values (Epoch: 2025-11-08T02:31:37.875Z)
Latitude
0.00005°
Longitude
93.7396°
Altitude
3,506.067 km
Speed
6.392 km/s
True Right ascension
11h 56m 44s
True Declination
0° 00' 00"
Sunlit
Object was in daylight at epoch
Visualization orbit readout
Latitude
Unknown
Longitude
Unknown
Altitude
Unknown
Speed
Unknown
Apparent Right ascension
Unknown
Apparent Declination
Unknown
Sunlit
N/A
Visualization observer readout
Local Sidereal Time
11:12:19
Azimuth
Unknown
Elevation
Unknown
Doppler factor
Unknown
Orbital elements
Apogee altitude
3,787.501 km
Perigee altitude
3,475.475 km
Semi-major axis
10,009.625 km
Eccentricity
0.01559
Inclination
87.3723°
RAAN
179.1871°
Arg. of periapsis
34.317°
True anomaly
325.76913°
Mean anomaly
326.7642°
Eccentric anomaly
326.2683°
Mean motion
2.16729 °/min
Orbital period
166.11 mins
BSTAR
0.020613
Loading maneuver chart data...
Computing Atmospheric mass density...

Documentation

Showing up to 5 results
|